Weather History for Wolf Point, MT

Change the Weather History Date:

Tuesday, November 20, 2012

  Actual Average Record
Temperature  
Mean Temperature 38 °F -  
Max Temperature 50 °F 38 °F 60 °F (2001)
Min Temperature 25 °F 13 °F -11 °F (2011)
Degree Days  
Heating Degree Days 27    
Cooling Degree Days 0    
Moisture  
Dew Point 30 °F    
Average Humidity 81    
Maximum Humidity 92    
Minimum Humidity 61    
Precipitation  
Precipitation 0.00 in 0.01 in 0.04 in (1998)
Month to date precipitation 0.27 0.29  
Year to date precipitation 10.14 11.78  
Sea Level Pressure  
Sea Level Pressure 29.88 in    
Wind  
Wind Speed 2 mph (NE)    
Max Wind Speed 6 mph    
Max Gust Speed -    
Visibility 10 miles    
Events      
T = Trace of Precipitation, MM = Missing Value Source: NWS Daily Summary

Daily Weather History Graph

Daily Weather History Graph

Search for Another Location

Airport:

Trip Planner

Search our weather history database for the weather conditions in past years. The results will help you decide how hot, cold, wet, or windy it might be!

Date:

Astronomy

Nov. 20, 2012 Rise Set
Actual Time 7:17 AM MST 4:18 PM MST
Civil Twilight 6:42 AM MST 4:53 PM MST
Nautical Twilight 6:04 AM MST 5:31 PM MST
Astronomical Twilight 5:27 AM MST 6:08 PM MST
Moon 12:36 PM MST (11/20) No Moon Set
Length of Visible Light 10h 10m
Length of Day
9h 01m
First Quarter, 52% of the Moon is Illuminated
Nov 20
First Quarter
Nov 28
Full
Dec 6
Last Quarter
Dec 13
New
Dec 19
First Quarter

Hourly Weather History & Observations

Time (MST) Temp. Windchill Dew Point Humidity Pressure Visibility Wind Dir Wind Speed Gust Speed Precip Events Conditions
12:53 AM 41.0 °F 38.0 °F 30.9 °F 67% 29.89 in 10.0 mi WSW 4.6 mph - N/A   Clear
1:53 AM 35.1 °F - 28.9 °F 78% 29.89 in 10.0 mi Calm Calm - N/A   Clear
2:53 AM 32.0 °F - 27.0 °F 82% 29.89 in 10.0 mi Calm Calm - N/A   Clear
3:53 AM 30.0 °F 25.2 °F 26.1 °F 85% 29.88 in 10.0 mi NNE 4.6 mph - N/A   Clear
4:53 AM 28.0 °F - 25.0 °F 88% 29.88 in 10.0 mi Calm Calm - N/A   Clear
5:53 AM 30.0 °F - 26.1 °F 85% 29.88 in 10.0 mi Calm Calm - N/A   Clear
6:53 AM 26.1 °F - 24.1 °F 92% 29.89 in 10.0 mi Calm Calm - N/A   Clear
7:53 AM 27.0 °F - 23.0 °F 85% 29.90 in 10.0 mi Calm Calm - N/A   Clear
8:53 AM 32.0 °F - 27.0 °F 82% 29.91 in 10.0 mi Calm Calm - N/A   Clear
9:53 AM 36.0 °F 33.3 °F 30.0 °F 79% 29.90 in 10.0 mi ENE 3.5 mph - N/A   Clear
10:53 AM 37.0 °F - 30.9 °F 79% 29.89 in 10.0 mi Calm Calm - N/A   Clear
11:53 AM 43.0 °F - 32.0 °F 65% 29.88 in 10.0 mi Calm Calm - N/A   Clear
12:53 PM 46.0 °F 44.8 °F 35.1 °F 66% 29.86 in 10.0 mi WNW 3.5 mph - N/A   Clear
1:53 PM 50.0 °F - 37.0 °F 61% 29.86 in 10.0 mi West 3.5 mph - N/A   Clear
2:53 PM 46.0 °F - 36.0 °F 68% 29.85 in 10.0 mi Calm Calm - N/A   Clear
3:53 PM 41.0 °F 38.0 °F 34.0 °F 76% 29.86 in 9.0 mi ENE 4.6 mph - N/A   Clear
4:53 PM 37.9 °F 35.5 °F 33.1 °F 83% 29.86 in 10.0 mi ENE 3.5 mph - N/A   Clear
5:53 PM 36.0 °F 31.1 °F 32.0 °F 86% 29.88 in 10.0 mi ENE 5.8 mph - N/A   Clear
6:53 PM 36.0 °F 32.1 °F 32.0 °F 86% 29.88 in 10.0 mi East 4.6 mph - N/A   Clear
7:53 PM 35.1 °F 30.1 °F 30.9 °F 85% 29.88 in 10.0 mi ENE 5.8 mph - N/A   Clear
8:53 PM 35.1 °F 31.0 °F 32.0 °F 89% 29.86 in 10.0 mi NE 4.6 mph - N/A   Clear
9:53 PM 36.0 °F 31.1 °F 32.0 °F 86% 29.86 in 10.0 mi ENE 5.8 mph - N/A   Partly Cloudy
10:53 PM 35.1 °F 31.0 °F 33.1 °F 92% 29.85 in 10.0 mi ESE 4.6 mph - N/A   Partly Cloudy
11:53 PM 34.0 °F 29.8 °F 32.0 °F 92% 29.83 in 10.0 mi NE 4.6 mph - N/A   Clear